This is the latest recevied weather packets stored in our database for station/object AI5BL. If no packets are shown the sender has not sent any weather packets the latest 10 day(s).
| Time | Temp. | Humidity | Pressure | Rain* | Wind** | Luminosity | Snow |
|---|---|---|---|---|---|---|---|
| 1777743771 | 20° C | 46% | 1018.9 hPa | 0 mm | - | 840 W/m² | - |
| 1777743467 | 21.11° C | 40% | 1019.2 hPa | 0 mm | - | 840 W/m² | - |
| 1777743164 | 20° C | 48% | 1019.3 hPa | 0 mm | - | 836 W/m² | - |
| 1777742863 | 21.11° C | 46% | 1019.3 hPa | 0 mm | - | 832 W/m² | - |
| 1777742558 | 20.56° C | 43% | 1019.2 hPa | 0 mm | - | 825 W/m² | - |
| 1777742254 | 21.11° C | 46% | 1019.2 hPa | 0 mm | - | 824 W/m² | - |
| 1777741952 | 20.56° C | 52% | 1019.3 hPa | 0 mm | - | 816 W/m² | - |
| 1777741649 | 20° C | 47% | 1019.4 hPa | 0 mm | - | 813 W/m² | - |
| 1777741345 | 20.56° C | 50% | 1019.4 hPa | 0 mm | - | 809 W/m² | - |
| 1777741041 | 20° C | 55% | 1019.2 hPa | 0 mm | - | 802 W/m² | - |
| 1777740739 | 20° C | 55% | 1019.2 hPa | 0 mm | - | 793 W/m² | - |
| 1777740435 | 20° C | 51% | 1019.4 hPa | 0 mm | - | 789 W/m² | - |
| 1777740133 | 20° C | 55% | 1019.3 hPa | 0 mm | - | 782 W/m² | - |
| 1777739828 | 19.44° C | 55% | 1019.5 hPa | 0 mm | - | 775 W/m² | - |
| 1777739525 | 19.44° C | 54% | 1019.4 hPa | 0 mm | - | 769 W/m² | - |
| 1777739222 | 20° C | 56% | 1019.3 hPa | 0 mm | - | 759 W/m² | - |
| 1777738918 | 20° C | 56% | 1019.1 hPa | 0 mm | - | 750 W/m² | - |
| 1777738616 | 18.89° C | 58% | 1019.4 hPa | 0 mm | - | 737 W/m² | - |
| 1777738312 | 18.89° C | 59% | 1019.1 hPa | 0 mm | - | 728 W/m² | - |
| 1777738010 | 19.44° C | 59% | 1019.3 hPa | 0 mm | - | 717 W/m² | - |
| 1777737709 | 19.44° C | 62% | 1019 hPa | 0 mm | - | 711 W/m² | - |
| 1777737407 | 19.44° C | 59% | 1019 hPa | 0 mm | - | 696 W/m² | - |
| 1777737104 | 18.33° C | 63% | 1019.2 hPa | 0 mm | - | 687 W/m² | - |
| 1777736800 | 18.89° C | 64% | 1018.9 hPa | 0 mm | - | 677 W/m² | - |
| 1777736171 | 19.44° C | 62% | 1018.8 hPa | 0 mm | - | 650 W/m² | - |
* Rain latest hour (hover to see other rain measurements)
** Current wind speed in m/s (hover to see current wind gust speed)